User: anonymous   Login
Location: Reading
(52.0000°N, 0.0000°E)
Time: 09:13:41
(UTC+00:00)
Language:

Iridium 41 - Orbit

View from above orbital plane
View from above orbital plane
View from above satellite
View from above satellite

Ground track
Ground track

The orbit data is extracted from the following two-line orbital elements,

1 25040U 97069B   17023.54982910  .00000135  00000-0  40990-4 0  9998
2 25040  86.3953  82.4366 0002345  94.4755 265.6709 14.34221566  5581
Epoch (UTC): 23 January 2017 13:11:45
Eccentricity: 0.0002345
inclination: 86.3953°
perigee height: 776 km
apogee height: 779 km
right ascension of ascending node: 82.4366°
argument of perigee: 94.4755°
revolutions per day: 14.34221566
mean anomaly at epoch: 265.6709°
orbit number at epoch: 558

The dashed part of the orbit path shows where the satellite is in the earth's shadow,  

DLR